sat.trackr.live / text

‹ back to catalog

ZHONGXING-26

NORAD 55686 · 2023-023A

PAYLOAD ACTIVE UNKNOWN

§ Identity

Operator
Country
PRC
Launch date
2023-02-23
Launch site
XICLF
Launch vehicle
Mass (kg)
RCS (m²)

Purposes: comms

External: N2YO · Heavens-Above · Gunter

§ Orbital elements

Epoch: 2026-09-19T22:41:55.866336Z

Period
1,436.08 min
Inclination
0.0590°
Eccentricity
0.0002579
Mean motion
1.00272955 rev/d
Perigee alt
35,775.4 km
Apogee alt
35,797.1 km
Semi-major
42,164.4 km
B*
0.0000e+0
RAAN
70.4521°
Arg perigee
50.9554°
Mean anomaly
343.0072°
Rev number
1,318

§ Raw data

ZHONGXING-261 55686U 23023A   26262.94578549 -.00000358  00000+0  00000+0 0  99942 55686   0.0590  70.4521 0002579  50.9554 343.0072  1.00272955 13189

JSON: /api/v1/satellites/55686 · /tle

For live sub-satellite position, see the globe view (requires WebGL).

§ Visibility from observer

Set your observer location to see the next 7 days of passes ≥ 10°. The values pass through the URL so the page stays shareable.

No JS? Fill the form by hand. The geolocation button needs JavaScript.